START_TIME,STEP,MOV.,M15,t_acc.,M20,t_acc.
1979-07-22 09:00:43.540 ,4,0,0.,24.0,0.,24.0
1979-07-22 09:01:07.540 ,3,1,0.,24.0,0.,24.0
1979-07-22 09:01:31.540 ,3,0,0.,24.0,0.,24.0
1979-07-22 09:01:55.540 ,2,1,0.,24.0,0.,24.0
1979-07-22 09:02:19.540 ,2,0,0.,24.0,0.,24.0
1979-07-22 09:02:43.540 ,1,1,0.,24.0,0.,24.0
1979-07-22 09:03:07.540 ,1,0,0.,24.0,0.,24.0
1979-07-22 09:03:31.540 ,0,1,0.,24.0,0.,24.0
1979-07-22 09:03:55.540 ,0,0,0.,24.0,0.,24.0
1979-07-22 09:04:19.540 ,0,1,0.,24.0,0.,24.0
1979-07-22 09:04:43.540 ,0,0,0.,24.0,0.,24.0
1979-07-22 09:05:07.540 ,1,1,0.,24.0,0.,24.0
1979-07-22 09:05:31.540 ,1,0,0.,24.0,0.,24.0
1979-07-22 09:05:55.540 ,2,1,0.,24.0,0.,24.0
1979-07-22 09:06:19.540 ,2,0,0.,24.0,0.,24.0
1979-07-22 09:06:43.540 ,3,1,0.,24.0,0.,24.0
1979-07-22 09:07:07.540 ,3,0,0.,24.0,0.,24.0
1979-07-22 09:07:31.540 ,4,1,0.,24.0,0.,24.0
1979-07-22 09:07:55.540 ,4,0,0.,24.0,0.,24.0
1979-07-22 09:08:19.540 ,5,1,0.,24.0,0.,24.0
1979-07-22 09:08:43.540 ,5,0,0.,24.0,0.,24.0
1979-07-22 09:09:07.540 ,6,1,0.,24.0,0.,24.0
1979-07-22 09:09:31.540 ,6,0,0.,24.0,0.,24.0
1979-07-22 09:09:55.540 ,7,1,0.,24.0,0.,24.0
1979-07-22 09:10:19.540 ,7,0,0.,24.0,0.,24.0
1979-07-22 09:10:43.540 ,7,1,0.,24.0,0.,24.0
1979-07-22 09:11:07.540 ,7,0,0.,24.0,0.,24.0
1979-07-22 09:11:31.540 ,6,1,0.,24.0,0.,24.0
1979-07-22 09:11:55.540 ,6,0,0.,24.0,0.,24.0
1979-07-22 09:12:19.540 ,5,1,0.,24.0,0.,24.0
1979-07-22 09:12:43.540 ,5,0,0.,24.0,0.,24.0
1979-07-22 09:13:07.540 ,4,1,0.,24.0,0.,24.0
1979-07-22 09:13:31.540 ,4,0,0.,24.0,0.,24.0
1979-07-22 09:13:55.540 ,3,1,0.,24.0,0.,24.0
1979-07-22 09:14:19.540 ,3,0,0.,24.0,0.,24.0
1979-07-22 09:14:43.540 ,2,1,0.,24.0,0.,24.0
1979-07-22 09:15:07.540 ,2,0,0.,24.0,0.,24.0
1979-07-22 09:15:31.540 ,1,1,0.,24.0,0.,24.0
1979-07-22 09:15:55.540 ,1,0,0.,24.0,0.,24.0
1979-07-22 09:16:19.540 ,0,1,0.,24.0,0.,24.0
1979-07-22 09:16:43.540 ,0,0,0.,24.0,0.,24.0
1979-07-22 09:17:07.540 ,0,1,0.,24.0,0.,24.0
1979-07-22 09:17:31.540 ,0,0,0.,24.0,0.,24.0
1979-07-22 09:17:55.540 ,1,1,0.,24.0,0.,24.0
1979-07-22 09:18:19.540 ,1,0,0.,24.0,0.,24.0
1979-07-22 09:18:43.540 ,2,1,0.,24.0,0.,24.0
1979-07-22 09:19:07.540 ,2,0,0.,24.0,0.,24.0
1979-07-22 09:19:31.540 ,3,1,0.,24.0,0.,24.0
1979-07-22 09:19:55.540 ,3,0,0.,24.0,0.,24.0
1979-07-22 09:20:19.540 ,4,1,0.,24.0,0.,24.0
1979-07-22 09:20:43.540 ,4,0,0.,24.0,0.,24.0
1979-07-22 09:21:07.540 ,5,1,0.,24.0,0.,24.0
1979-07-22 09:21:31.540 ,5,0,0.,24.0,0.,24.0
1979-07-22 09:21:55.540 ,6,1,0.,24.0,0.,24.0
1979-07-22 09:22:19.540 ,6,0,0.,24.0,0.,24.0
1979-07-22 09:22:43.540 ,7,1,0.,24.0,0.,24.0
1979-07-22 09:23:07.540 ,7,0,0.,24.0,0.,24.0
1979-07-22 09:23:31.540 ,7,1,0.,24.0,0.,24.0
1979-07-22 09:23:55.540 ,7,0,0.,24.0,0.,24.0
1979-07-22 09:24:19.540 ,6,1,0.,24.0,0.,24.0
1979-07-22 09:24:43.540 ,6,0,0.,24.0,0.,24.0
1979-07-22 09:25:07.540 ,5,1,0.,24.0,0.,24.0
1979-07-22 09:25:31.540 ,5,0,1.,24.0,0.,24.0
1979-07-22 09:25:55.540 ,4,1,0.,24.0,0.,24.0
1979-07-22 09:26:19.540 ,4,0,0.,24.0,0.,24.0
1979-07-22 09:26:43.540 ,3,1,0.,24.0,0.,24.0
1979-07-22 09:27:07.540 ,3,0,0.,24.0,0.,24.0
1979-07-22 09:27:31.540 ,2,1,0.,24.0,0.,24.0
1979-07-22 09:27:55.540 ,0,0,0.,24.0,0.,24.0
1979-07-22 09:28:19.540 ,1,1,0.,24.0,0.,24.0
1979-07-22 09:28:43.540 ,1,0,0.,24.0,0.,24.0
1979-07-22 09:29:07.540 ,0,1,0.,24.0,0.,24.0
1979-07-22 09:29:31.540 ,0,0,0.,24.0,0.,24.0
1979-07-22 09:29:55.540 ,0,1,0.,24.0,0.,24.0
1979-07-22 09:30:19.540 ,0,0,0.,24.0,0.,24.0
1979-07-22 09:30:43.540 ,1,1,0.,24.0,0.,24.0
1979-07-22 09:31:07.540 ,1,0,0.,24.0,0.,24.0
1979-07-22 09:31:31.540 ,2,1,0.,24.0,0.,24.0
1979-07-22 09:31:55.540 ,2,0,0.,24.0,0.,24.0
1979-07-22 09:32:19.540 ,3,1,0.,24.0,0.,24.0
1979-07-22 09:32:43.540 ,3,0,0.,24.0,0.,24.0
1979-07-22 09:33:07.540 ,4,1,0.,24.0,0.,24.0
1979-07-22 09:33:31.540 ,4,0,0.,24.0,0.,24.0
1979-07-22 09:33:55.540 ,5,1,0.,24.0,0.,24.0
1979-07-22 09:34:19.530 ,5,0,0.,24.0,0.,24.0
1979-07-22 09:34:43.530 ,6,1,0.,24.0,0.,24.0
1979-07-22 09:35:07.530 ,6,0,0.,24.0,0.,24.0
1979-07-22 09:35:31.530 ,7,1,0.,24.0,0.,24.0
1979-07-22 09:35:55.530 ,7,0,0.,24.0,0.,24.0
1979-07-22 09:36:19.530 ,7,1,0.,24.0,0.,24.0
1979-07-22 09:36:43.530 ,7,0,0.,24.0,0.,24.0
1979-07-22 09:37:07.530 ,6,1,0.,24.0,0.,24.0
1979-07-22 09:37:31.530 ,6,0,0.,24.0,0.,24.0
1979-07-22 09:37:55.530 ,5,1,0.,24.0,0.,24.0
1979-07-22 09:38:19.530 ,5,0,0.,24.0,0.,24.0
1979-07-22 09:38:43.530 ,4,1,0.,24.0,0.,24.0
1979-07-22 09:39:07.530 ,4,0,0.,24.0,0.,24.0
1979-07-22 09:39:31.530 ,3,1,0.,24.0,0.,24.0
1979-07-22 09:39:55.530 ,3,0,0.,24.0,0.,24.0
1979-07-22 09:40:19.530 ,2,1,0.,24.0,0.,24.0
1979-07-22 09:40:43.530 ,2,0,0.,24.0,0.,24.0
1979-07-22 09:41:07.530 ,1,1,0.,24.0,0.,24.0
1979-07-22 09:41:31.530 ,1,0,0.,24.0,0.,24.0
1979-07-22 09:41:55.530 ,0,1,0.,24.0,0.,24.0
1979-07-22 09:42:19.530 ,0,0,0.,24.0,0.,24.0
1979-07-22 09:42:43.530 ,0,1,0.,24.0,0.,24.0
1979-07-22 09:43:07.530 ,0,0,0.,24.0,0.,24.0
1979-07-22 09:43:31.530 ,1,1,0.,24.0,0.,24.0
1979-07-22 09:43:55.530 ,1,0,0.,24.0,0.,24.0
1979-07-22 09:44:19.530 ,2,1,0.,24.0,0.,24.0
1979-07-22 09:44:43.530 ,2,0,0.,24.0,0.,24.0
1979-07-22 09:45:07.530 ,3,1,0.,24.0,0.,24.0
1979-07-22 09:45:31.530 ,3,0,0.,24.0,0.,24.0
1979-07-22 09:45:55.530 ,4,1,0.,24.0,0.,24.0
1979-07-22 09:46:19.530 ,4,0,0.,24.0,0.,24.0
1979-07-22 09:46:43.530 ,5,1,0.,24.0,0.,24.0
1979-07-22 09:47:07.530 ,5,0,0.,24.0,0.,24.0
1979-07-22 09:47:31.530 ,6,1,0.,24.0,0.,24.0
1979-07-22 09:47:55.530 ,6,0,0.,24.0,0.,24.0
1979-07-22 09:48:19.530 ,7,1,0.,24.0,0.,24.0
1979-07-22 09:48:43.530 ,7,0,0.,24.0,0.,24.0
1979-07-22 09:49:07.530 ,7,1,0.,24.0,0.,24.0
1979-07-22 09:49:31.530 ,7,0,0.,24.0,0.,24.0
1979-07-22 09:49:55.530 ,6,1,0.,24.0,0.,24.0
1979-07-22 09:50:19.530 ,6,0,0.,24.0,0.,24.0
1979-07-22 09:50:43.530 ,5,1,0.,24.0,0.,24.0
1979-07-22 09:51:07.530 ,5,0,0.,24.0,0.,24.0
1979-07-22 09:51:31.530 ,4,1,0.,24.0,0.,24.0
1979-07-22 09:51:55.530 ,4,0,0.,24.0,0.,24.0
1979-07-22 09:52:19.530 ,3,1,0.,24.0,0.,24.0
1979-07-22 09:52:43.530 ,3,0,0.,24.0,0.,24.0
1979-07-22 09:53:07.530 ,2,1,0.,24.0,0.,24.0
1979-07-22 09:53:31.530 ,2,0,0.,24.0,0.,24.0
1979-07-22 09:53:55.530 ,1,1,0.,24.0,0.,24.0
1979-07-22 09:54:19.530 ,1,0,0.,24.0,0.,24.0
1979-07-22 09:54:43.530 ,0,1,0.,24.0,0.,24.0
1979-07-22 09:55:07.530 ,0,0,0.,24.0,0.,24.0
1979-07-22 09:55:31.530 ,0,0,,0,,0
1979-07-22 09:55:55.530 ,0,0,0.,24.0,0.,24.0
1979-07-22 09:56:19.530 ,1,1,0.,24.0,0.,24.0
1979-07-22 09:56:43.530 ,1,0,0.,24.0,0.,24.0
1979-07-22 09:57:07.530 ,2,1,0.,24.0,0.,24.0
1979-07-22 09:57:31.530 ,2,0,0.,24.0,0.,24.0
1979-07-22 09:57:55.530 ,3,1,0.,24.0,0.,24.0
1979-07-22 09:58:19.530 ,3,0,0.,24.0,0.,24.0
1979-07-22 09:58:43.530 ,4,1,0.,24.0,0.,24.0
1979-07-22 09:59:07.530 ,4,0,0.,24.0,0.,24.0
1979-07-22 09:59:31.530 ,5,1,0.,24.0,0.,24.0
1979-07-22 09:59:55.530 ,5,0,0.,24.0,0.,24.0
1979-07-22 10:00:19.530 ,6,1,0.,24.0,0.,24.0
1979-07-22 10:00:43.530 ,6,0,0.,24.0,0.,24.0
1979-07-22 10:01:07.530 ,7,1,0.,24.0,0.,24.0
1979-07-22 10:01:31.530 ,7,0,0.,24.0,0.,24.0
1979-07-22 10:01:55.530 ,7,1,0.,24.0,0.,24.0
1979-07-22 10:02:19.530 ,7,0,0.,24.0,0.,24.0
1979-07-22 10:02:43.530 ,6,1,0.,24.0,0.,24.0
1979-07-22 10:03:07.530 ,6,0,0.,24.0,0.,24.0
1979-07-22 10:03:31.530 ,5,1,0.,24.0,0.,24.0
1979-07-22 10:03:55.530 ,5,0,0.,24.0,0.,24.0
1979-07-22 10:04:19.530 ,4,1,0.,24.0,0.,24.0
1979-07-22 10:04:43.530 ,4,0,0.,24.0,0.,24.0
1979-07-22 10:05:07.530 ,3,1,0.,24.0,0.,24.0
1979-07-22 10:05:31.530 ,3,0,0.,24.0,0.,24.0
1979-07-22 10:05:55.530 ,2,1,0.,24.0,0.,24.0
1979-07-22 10:06:19.530 ,2,0,0.,24.0,0.,24.0
1979-07-22 10:06:43.530 ,1,1,0.,24.0,0.,24.0
1979-07-22 10:07:07.530 ,1,0,0.,24.0,0.,24.0
1979-07-22 10:07:31.530 ,0,1,0.,24.0,0.,24.0
1979-07-22 10:07:55.530 ,0,0,0.,24.0,0.,24.0
1979-07-22 10:08:19.530 ,0,1,0.,24.0,0.,24.0
1979-07-22 10:08:43.530 ,0,0,0.,24.0,0.,24.0
1979-07-22 10:09:07.530 ,1,1,0.,24.0,0.,24.0
1979-07-22 10:09:31.530 ,1,0,0.,24.0,0.,24.0
1979-07-22 10:09:55.530 ,2,1,0.,24.0,0.,24.0
1979-07-22 10:10:19.530 ,2,0,0.,24.0,0.,24.0
1979-07-22 10:10:43.530 ,3,1,0.,24.0,0.,24.0
1979-07-22 10:11:07.530 ,3,0,0.,24.0,0.,24.0
1979-07-22 10:11:31.530 ,4,1,0.,24.0,0.,24.0
1979-07-22 10:11:55.530 ,4,0,0.,24.0,0.,24.0
1979-07-22 10:12:19.530 ,5,1,0.,24.0,0.,24.0
1979-07-22 10:12:43.530 ,5,0,0.,24.0,0.,24.0
1979-07-22 10:13:07.530 ,6,1,0.,24.0,0.,24.0
1979-07-22 10:13:31.530 ,6,0,0.,24.0,0.,24.0
1979-07-22 10:13:55.530 ,7,1,0.,24.0,0.,24.0
1979-07-22 10:14:19.530 ,7,0,0.,24.0,0.,24.0
1979-07-22 10:14:43.530 ,7,1,0.,24.0,0.,24.0
1979-07-22 10:15:07.530 ,7,0,0.,24.0,0.,24.0
1979-07-22 10:15:31.530 ,6,1,0.,24.0,0.,24.0
1979-07-22 10:15:55.530 ,6,0,0.,24.0,0.,24.0
1979-07-22 10:16:19.530 ,5,1,0.,24.0,0.,24.0
1979-07-22 10:16:43.530 ,5,0,0.,24.0,0.,24.0
1979-07-22 10:17:07.530 ,4,1,0.,24.0,0.,24.0
1979-07-22 10:17:31.530 ,4,0,0.,24.0,0.,24.0
1979-07-22 10:17:55.530 ,3,1,0.,24.0,0.,24.0
1979-07-22 10:18:19.530 ,3,0,0.,24.0,0.,24.0
1979-07-22 10:18:43.530 ,2,1,0.,24.0,0.,24.0
1979-07-22 10:19:07.530 ,2,0,0.,24.0,0.,24.0
1979-07-22 10:19:31.530 ,1,1,0.,24.0,0.,24.0
1979-07-22 10:19:55.530 ,1,0,0.,24.0,0.,24.0
1979-07-22 10:20:19.530 ,0,1,0.,24.0,0.,24.0
1979-07-22 10:20:43.530 ,0,0,0.,24.0,0.,24.0
1979-07-22 10:21:07.530 ,0,1,0.,24.0,0.,24.0
1979-07-22 10:21:31.530 ,0,0,0.,24.0,0.,24.0
1979-07-22 10:21:55.530 ,1,1,0.,24.0,0.,24.0
1979-07-22 10:22:19.530 ,1,0,0.,24.0,0.,24.0
1979-07-22 10:22:43.530 ,2,1,0.,24.0,0.,24.0
1979-07-22 10:23:07.530 ,2,0,0.,24.0,0.,24.0
1979-07-22 10:23:31.530 ,3,1,0.,24.0,0.,24.0
1979-07-22 10:23:55.530 ,3,0,0.,24.0,0.,24.0
1979-07-22 10:24:19.530 ,4,1,0.,24.0,0.,24.0
1979-07-22 10:24:43.530 ,4,0,0.,24.0,0.,24.0
1979-07-22 10:25:07.530 ,5,1,0.,24.0,0.,24.0
1979-07-22 10:25:31.530 ,5,0,0.,24.0,0.,24.0
1979-07-22 10:25:55.530 ,6,1,0.,24.0,0.,24.0
1979-07-22 10:26:19.530 ,6,0,0.,24.0,0.,24.0
1979-07-22 10:26:43.530 ,7,1,0.,24.0,0.,24.0
1979-07-22 10:27:07.530 ,7,0,0.,24.0,0.,24.0
1979-07-22 10:27:31.530 ,7,1,0.,24.0,0.,24.0
1979-07-22 10:27:55.530 ,7,0,0.,24.0,0.,24.0
1979-07-22 10:28:19.530 ,6,1,0.,24.0,0.,24.0
1979-07-22 10:28:43.530 ,6,0,0.,24.0,0.,24.0
1979-07-22 10:29:07.530 ,5,1,0.,24.0,0.,24.0
1979-07-22 10:29:31.530 ,5,0,0.,24.0,0.,24.0
1979-07-22 10:29:55.530 ,4,1,0.,24.0,0.,24.0
1979-07-22 10:30:19.530 ,4,0,0.,24.0,0.,24.0
1979-07-22 10:30:43.530 ,3,1,0.,24.0,0.,24.0
1979-07-22 10:31:07.530 ,3,0,0.,24.0,0.,24.0
1979-07-22 10:31:31.530 ,2,1,0.,24.0,0.,24.0
1979-07-22 10:31:55.530 ,2,0,0.,24.0,0.,24.0
1979-07-22 10:32:19.530 ,1,1,0.,24.0,0.,24.0
1979-07-22 10:32:43.530 ,1,0,0.,24.0,0.,24.0
1979-07-22 10:33:07.530 ,0,1,0.,24.0,0.,24.0
1979-07-22 10:33:31.530 ,0,0,0.,24.0,0.,24.0
1979-07-22 10:33:55.530 ,0,1,0.,24.0,0.,24.0
1979-07-22 10:34:19.530 ,0,0,0.,24.0,0.,24.0
1979-07-22 10:34:43.530 ,1,1,0.,24.0,0.,24.0
1979-07-22 10:35:07.530 ,1,0,0.,24.0,0.,24.0
1979-07-22 10:35:31.530 ,2,1,0.,24.0,0.,24.0
1979-07-22 10:35:55.530 ,2,0,0.,24.0,0.,24.0
1979-07-22 10:36:19.530 ,3,1,0.,24.0,0.,24.0
1979-07-22 10:36:43.530 ,3,0,0.,24.0,0.,24.0
1979-07-22 10:37:07.530 ,4,1,0.,24.0,0.,24.0
1979-07-22 10:37:31.530 ,4,0,0.,24.0,0.,24.0
1979-07-22 10:37:55.530 ,5,1,0.,24.0,0.,24.0
1979-07-22 10:38:19.530 ,5,0,0.,24.0,0.,24.0
1979-07-22 10:38:43.530 ,6,1,0.,24.0,0.,24.0
1979-07-22 10:39:07.530 ,6,0,0.,24.0,0.,24.0
1979-07-22 10:39:31.530 ,7,1,0.,24.0,0.,24.0
1979-07-22 10:39:55.530 ,7,0,0.,24.0,0.,24.0
1979-07-22 10:40:19.530 ,7,1,0.,24.0,0.,24.0
1979-07-22 10:40:43.530 ,7,0,0.,24.0,0.,24.0
1979-07-22 10:41:07.530 ,6,1,0.,24.0,0.,24.0
1979-07-22 10:41:31.530 ,0,0,0.,24.0,0.,24.0
1979-07-22 10:42:11.730 ,0,0,1.,24.0,0.,24.0
1979-07-22 10:42:19.530 ,0,0,0.,24.0,0.,24.0
1979-07-22 10:42:43.530 ,4,1,0.,24.0,0.,24.0
1979-07-22 10:43:07.530 ,4,0,0.,24.0,0.,24.0
1979-07-22 10:43:31.530 ,3,1,0.,24.0,0.,24.0
1979-07-22 10:43:55.530 ,3,0,0.,24.0,0.,24.0
1979-07-22 10:44:19.530 ,2,1,0.,24.0,0.,24.0
1979-07-22 10:44:43.530 ,2,0,0.,24.0,0.,24.0
1979-07-22 10:45:07.530 ,1,1,0.,24.0,0.,24.0
1979-07-22 10:45:31.530 ,1,0,0.,24.0,0.,24.0
1979-07-22 10:45:55.530 ,0,1,0.,24.0,0.,24.0
1979-07-22 10:46:19.530 ,0,0,0.,24.0,0.,24.0
1979-07-22 10:46:43.530 ,0,1,0.,24.0,0.,24.0
1979-07-22 10:47:07.530 ,0,0,0.,24.0,0.,24.0
1979-07-22 10:47:31.530 ,1,1,0.,24.0,0.,24.0
1979-07-22 10:47:55.530 ,1,0,0.,24.0,0.,24.0
1979-07-22 10:48:19.530 ,2,1,0.,24.0,0.,24.0
1979-07-22 10:48:43.530 ,2,0,0.,24.0,0.,24.0
1979-07-22 10:49:07.530 ,3,1,0.,24.0,0.,24.0
1979-07-22 10:49:31.530 ,3,0,0.,24.0,0.,24.0
1979-07-22 10:49:55.530 ,4,1,0.,24.0,0.,24.0
1979-07-22 10:50:19.530 ,4,0,0.,24.0,0.,24.0
1979-07-22 10:50:43.530 ,5,1,0.,24.0,0.,24.0
1979-07-22 10:51:07.530 ,5,0,0.,24.0,0.,24.0
1979-07-22 10:51:31.530 ,6,1,0.,24.0,0.,24.0
1979-07-22 10:51:55.530 ,6,0,0.,24.0,0.,24.0
1979-07-22 10:52:19.530 ,7,1,0.,24.0,0.,24.0
1979-07-22 10:52:43.530 ,7,0,0.,24.0,0.,24.0
1979-07-22 10:53:07.530 ,7,1,0.,24.0,0.,24.0
1979-07-22 10:53:31.530 ,7,0,0.,24.0,0.,24.0
1979-07-22 10:53:55.530 ,6,1,0.,24.0,0.,24.0
1979-07-22 10:54:19.530 ,6,0,0.,24.0,0.,24.0
1979-07-22 10:54:43.530 ,5,1,0.,24.0,0.,24.0
1979-07-22 10:55:07.530 ,5,0,1.,24.0,0.,24.0
1979-07-22 10:55:31.530 ,4,1,0.,24.0,0.,24.0
1979-07-22 10:55:55.530 ,4,0,0.,24.0,0.,24.0
1979-07-22 10:56:19.530 ,3,1,0.,24.0,0.,24.0
1979-07-22 10:56:43.530 ,3,0,0.,24.0,0.,24.0
1979-07-22 10:57:07.530 ,2,1,0.,24.0,0.,24.0
1979-07-22 10:57:31.530 ,2,0,0.,24.0,0.,24.0
1979-07-22 10:57:55.530 ,1,1,0.,24.0,0.,24.0
1979-07-22 10:58:19.530 ,1,0,0.,24.0,0.,24.0
1979-07-22 10:58:43.530 ,0,1,0.,24.0,0.,24.0
1979-07-22 10:59:07.530 ,0,0,0.,24.0,0.,24.0
1979-07-22 10:59:31.530 ,0,1,0.,24.0,0.,24.0
1979-07-22 10:59:55.530 ,0,0,0.,24.0,0.,24.0
1979-07-22 11:00:19.530 ,1,1,0.,24.0,0.,24.0
1979-07-22 11:00:43.530 ,1,0,0.,24.0,0.,24.0
1979-07-22 11:01:07.530 ,2,1,0.,24.0,0.,24.0
1979-07-22 11:01:31.530 ,2,0,0.,24.0,0.,24.0
1979-07-22 11:01:55.530 ,3,1,0.,24.0,0.,24.0
1979-07-22 11:02:19.530 ,3,0,0.,24.0,0.,24.0
1979-07-22 11:02:43.530 ,4,1,0.,24.0,0.,24.0
1979-07-22 11:03:07.530 ,4,0,0.,24.0,0.,24.0
1979-07-22 11:03:31.530 ,5,1,0.,24.0,0.,24.0
1979-07-22 11:03:55.530 ,5,0,0.,24.0,0.,24.0
1979-07-22 11:04:19.530 ,6,1,0.,24.0,0.,24.0
1979-07-22 11:04:43.530 ,6,0,0.,24.0,0.,24.0
1979-07-22 11:05:07.530 ,7,1,0.,24.0,0.,24.0
1979-07-22 11:05:31.530 ,7,0,0.,24.0,0.,24.0
1979-07-22 11:05:55.530 ,7,1,0.,24.0,0.,24.0
1979-07-22 11:06:19.530 ,7,0,0.,24.0,0.,24.0
1979-07-22 11:06:43.530 ,6,1,0.,24.0,0.,24.0
1979-07-22 11:07:07.530 ,6,0,0.,24.0,0.,24.0
1979-07-22 11:07:31.530 ,5,1,0.,24.0,0.,24.0
1979-07-22 11:07:55.530 ,5,0,0.,24.0,0.,24.0
1979-07-22 11:08:19.530 ,4,1,0.,24.0,0.,24.0
1979-07-22 11:08:43.530 ,4,0,0.,24.0,0.,24.0
1979-07-22 11:09:07.530 ,3,1,0.,24.0,0.,24.0
1979-07-22 11:09:31.530 ,3,0,0.,24.0,0.,24.0
1979-07-22 11:09:55.530 ,2,1,0.,24.0,0.,24.0
1979-07-22 11:10:19.530 ,2,0,0.,24.0,0.,24.0
1979-07-22 11:10:43.530 ,1,1,0.,24.0,0.,24.0
1979-07-22 11:11:07.530 ,1,0,0.,24.0,0.,24.0
1979-07-22 11:11:31.530 ,0,1,0.,24.0,0.,24.0
1979-07-22 11:11:55.530 ,0,0,0.,24.0,0.,24.0
1979-07-22 11:50:43.530 ,0,1,0.,24.0,0.,24.0
1979-07-22 11:51:07.530 ,0,0,0.,24.0,0.,24.0
1979-07-22 11:51:31.530 ,1,1,0.,24.0,0.,24.0
1979-07-22 11:51:55.530 ,1,0,0.,24.0,0.,24.0
1979-07-22 11:52:19.530 ,2,1,0.,24.0,0.,24.0
1979-07-22 11:52:43.530 ,2,0,0.,24.0,0.,24.0
1979-07-22 11:53:07.530 ,3,1,0.,24.0,0.,24.0
1979-07-22 11:53:31.530 ,3,0,0.,24.0,0.,24.0
1979-07-22 11:53:55.530 ,4,1,0.,24.0,0.,24.0
1979-07-22 11:54:19.530 ,4,0,0.,24.0,0.,24.0
1979-07-22 11:54:43.530 ,5,1,0.,24.0,0.,24.0
1979-07-22 11:55:07.530 ,5,0,0.,24.0,0.,24.0
1979-07-22 11:55:31.530 ,6,1,0.,24.0,0.,24.0
1979-07-22 11:55:55.530 ,6,0,0.,24.0,0.,24.0
1979-07-22 11:56:19.530 ,7,1,0.,24.0,0.,24.0
1979-07-22 11:56:43.530 ,7,0,0.,24.0,0.,24.0
1979-07-22 11:57:07.530 ,7,1,0.,24.0,0.,24.0
1979-07-22 11:57:31.530 ,7,0,0.,24.0,0.,24.0
1979-07-22 11:57:55.530 ,6,1,0.,24.0,0.,24.0
1979-07-22 11:58:19.530 ,6,0,0.,24.0,0.,24.0
1979-07-22 11:58:43.530 ,5,1,0.,24.0,0.,24.0
1979-07-22 11:59:07.530 ,5,0,0.,24.0,0.,24.0
1979-07-22 11:59:31.530 ,4,1,0.,24.0,0.,24.0
1979-07-22 11:59:55.530 ,4,0,0.,24.0,0.,24.0
1979-07-22 12:00:19.530 ,3,1,0.,24.0,0.,24.0
